{"data":{"norad_id":69747,"epoch":"2026-09-19T20:07:13.947168Z","epoch_age_seconds":74918,"freshness":"FRESH","line1":"1 69747U 26150J   26262.83835587  .00012903  00000+0  40098-3 0  9990","line2":"2 69747  97.2849 101.7589 0001315  93.1270 267.0123 15.33470571 13637","mean_motion":15.33470571,"eccentricity":0.0001315,"inclination_deg":97.2849,"raan_deg":101.7589,"arg_perigee_deg":93.127,"mean_anomaly_deg":267.0123,"bstar":0.00040098,"rev_number":1363,"period_min":93.90463874771,"perigee_km":464.5671602917,"apogee_km":466.36702816848,"semimajor_km":6843.6040942301,"source":"CELESTRAK","updated_at":"2026-09-20T09:00:44.287576Z"}}